This is the latest recevied weather packets stored in our database for station/object AC8JV. If no packets are shown the sender has not sent any weather packets the latest 10 day(s).
| Time | Temp. | Humidity | Pressure | Rain* | Wind** | Luminosity | Snow |
|---|---|---|---|---|---|---|---|
| 1777651203 | 5.56° C | 64% | 1016.7 hPa | 0 mm | - | - | - |
| 1777650598 | 6.11° C | 65% | 1016.7 hPa | 0 mm | - | - | - |
| 1777649998 | 6.11° C | 63% | 1016.6 hPa | 0 mm | - | - | - |
| 1777649407 | 6.67° C | 63% | 1016.5 hPa | 0 mm | - | - | - |
| 1777648803 | 6.67° C | 65% | 1016.5 hPa | 0 mm | - | - | - |
| 1777648210 | 6.11° C | 64% | 1016.5 hPa | 0 mm | - | - | - |
| 1777647621 | 6.11° C | 65% | 1016.4 hPa | 0 mm | - | - | - |
| 1777647006 | 6.11° C | 67% | 1016.4 hPa | 0 mm | - | - | - |
| 1777646485 | 5.56° C | 67% | 1016.3 hPa | 0 mm | - | - | - |
| 1777645822 | 5.56° C | 66% | 1016.2 hPa | 0 mm | - | - | - |
| 1777645206 | 5.56° C | 67% | 1016.3 hPa | 0 mm | - | - | - |
| 1777644606 | 5.56° C | 66% | 1016.1 hPa | 0 mm | - | - | - |
| 1777644009 | 5.56° C | 68% | 1016 hPa | 0 mm | - | - | - |
| 1777643401 | 5.56° C | 67% | 1015.9 hPa | 0 mm | - | - | - |
| 1777642804 | 5.56° C | 67% | 1015.9 hPa | 0 mm | - | - | - |
| 1777642233 | 5.56° C | 66% | 1015.8 hPa | 0 mm | - | - | - |
| 1777641607 | 5.56° C | 68% | 1015.7 hPa | 0 mm | - | - | - |
| 1777641021 | 5.56° C | 70% | 1015.7 hPa | 0 mm | - | - | - |
| 1777640400 | 5° C | 69% | 1015.7 hPa | 0 mm | - | - | - |
| 1777639798 | 5° C | 70% | 1015.6 hPa | 0 mm | - | - | - |
| 1777639228 | 4.44° C | 71% | 1015.6 hPa | 0 mm | - | - | - |
| 1777638599 | 4.44° C | 71% | 1015.6 hPa | 0 mm | - | - | - |
| 1777637999 | 4.44° C | 72% | 1015.7 hPa | 0 mm | - | - | - |
| 1777637417 | 3.89° C | 72% | 1015.4 hPa | 0 mm | - | - | - |
| 1777636801 | 3.89° C | 73% | 1015.5 hPa | 0 mm | - | - | - |
* Rain latest hour (hover to see other rain measurements)
** Current wind speed in m/s (hover to see current wind gust speed)